This demonstration page uses our WeatherBlox Daily Observations layout. Learn more.

Left ArrowRight Arrow

34.02893, -84.19858

Hourly Observations for June 1, 2020

Temp ( °F °C ) Dew Point ( °F °C ) Humidity (%) Winds ( mph kmh ) Pressure ( in mb ) Visibility ( mi km ) Precip ( " mm )
12:53 am 00:53 Clear 65 18.3 55 12.8 70 70 N 3 6 30.09 1019 10 16 0.00 0.00
1:53 am 01:53 Clear 65 18.3 54 12.2 68 68 NNE 3 6 30.10 1019 10 16 0.00 0.00
2:53 am 02:53 Clear 64 17.8 56 13.3 75 75 ENE 3 6 30.11 1020 10 16 0.00 0.00
3:53 am 03:53 Mostly Cloudy 67 19.4 59 15 76 76 VRB 3 6 30.10 1019 10 16 0.00 0.00
4:53 am 04:53 Clear 67 19.4 59 15 76 76 Calm 30.11 1020 10 16 0.00 0.00
5:53 am 05:53 Clear 66 18.9 59 15 78 78 VRB 5 7 30.13 1020 10 16 0.00 0.00
6:53 am 06:53 Sunny 66 18.9 58 14.4 75 75 ENE 6 9 30.15 1021 10 16 0.00 0.00
7:53 am 07:53 Sunny 67 19.4 60 15.6 79 79 E 3 6 30.17 1022 10 16 0.00 0.00
8:53 am 08:53 Cloudy 69 20.6 61 16.1 76 76 undefined N/A 30.20 1023 10 16 0.00 0.00
9:53 am 09:53 Sunny 72 22.2 58 14.4 61 61 VRB 7 11 30.22 1023 10 16 0.00 0.00
10:53 am 10:53 Sunny 74 23.3 60 15.6 62 62 VRB 7 11 30.21 1023 10 16 0.00 0.00
11:53 am 11:53 Mostly Sunny 76 24.4 61 16.1 60 60 SE 8 13 30.22 1023 10 16 0.00 0.00
12:53 pm 12:53 Mostly Cloudy 75 23.9 59 15 58 58 E 7 11 30.22 1023 10 16 0.00 0.00
1:53 pm 13:53 Mostly Cloudy 78 25.6 61 16.1 56 56 VRB 7 11 30.20 1023 10 16 0.00 0.00
2:53 pm 14:53 Mostly Sunny 78 25.6 61 16.1 56 56 SSE 8 13 30.19 1022 10 16 0.00 0.00
3:53 pm 15:53 Cloudy 78 25.6 61 16.1 56 56 VRB 3 6 30.17 1022 10 16 0.00 0.00
4:53 pm 16:53 Mostly Sunny 80 26.7 61 16.1 52 52 SE 7 11 30.16 1021 10 16 0.00 0.00
5:53 pm 17:53 Mostly Cloudy 80 26.7 61 16.1 52 52 VRB 3 6 30.14 1021 10 16 0.00 0.00
6:53 pm 18:53 Sunny 79 26.1 61 16.1 54 54 VRB 3 6 30.14 1021 10 16 0.00 0.00
7:53 pm 19:53 Sunny 77 25 61 16.1 58 58 VRB 3 6 30.15 1021 10 16 0.00 0.00
8:53 pm 20:53 Clear 74 23.3 62 16.7 67 67 Calm 30.16 1021 10 16 0.00 0.00
9:53 pm 21:53 Clear 72 22.2 61 16.1 68 68 E 3 6 30.17 1022 10 16 0.00 0.00
10:53 pm 22:53 Clear 71 21.7 61 16.1 71 71 Calm 30.18 1022 10 16 0.00 0.00
11:53 pm 23:53 Clear 69 20.6 61 16.1 76 76 Calm 30.18 1022 10 16 0.00 0.00

Powered by AerisWeather